FW0283 Weather Reports


Display with metric or nautical units.
time (UTC)temp
F
wind
direction
speed
MPH
gust
MPH
rain 1hr
in
rain 24hr
in
rain mn
in
humidity
%
barometer
mb
20260506011513 53 264 0.0 1.0 0.00 0.21 0.06 55 1010.0
20260506010017 53 264 0.0 1.0 0.00 0.21 0.06 54 1009.9
20260506004521 53 269 0.0 1.0 0.00 0.21 0.06 53 1009.6
20260506003012 54 272 0.0 2.0 0.00 0.21 0.06 51 1009.4
20260506001512 54 249 0.0 2.0 0.00 0.21 0.06 50 1009.3
20260506000011 54 262 2.0 5.0 0.00 0.21 0.06 50 1009.3
20260505234512 54 274 0.0 3.0 0.00 0.21 0.06 51 1009.3
20260505233009 54 267 0.0 1.0 0.00 0.21 0.06 50 1009.4
20260505231513 54 284 0.0 3.0 0.00 0.21 0.06 49 1009.5
20260505230018 54 272 0.0 4.0 0.00 0.21 0.06 47 1009.5
20260505224509 54 281 0.0 2.0 0.00 0.21 0.06 48 1009.4
20260505223008 54 307 0.0 5.0 0.00 0.21 0.06 47 1009.5
20260505221507 54 257 1.0 5.0 0.00 0.21 0.06 46 1009.5
20260505220006 54 351 1.0 6.0 0.00 0.21 0.06 46 1009.7
20260505214505 54 269 0.0 6.0 0.00 0.21 0.06 48 1009.6
20260505213008 54 357 0.0 6.0 0.00 0.21 0.06 49 1009.8
20260505211505 54 298 0.0 5.0 0.00 0.21 0.06 57 1009.5
20260505210004 54 263 1.0 3.0 0.00 0.21 0.06 57 1009.8
20260505204502 54 270 1.0 5.0 0.00 0.21 0.06 55 1010.1
20260505203005 54 262 1.0 5.0 0.00 0.21 0.06 56 1010.2
20260505201502 53 264 0.0 2.0 0.00 0.21 0.06 57 1010.4
20260505200100 53 255 1.0 3.0 0.00 0.21 0.06 59 1010.7
20260505194600 53 248 0.0 5.0 0.00 0.21 0.06 57 1010.8
20260505193102 53 276 1.0 5.0 0.00 0.21 0.06 56 1010.9
20260505191605 53 263 0.0 4.0 0.00 0.21 0.06 56 1010.8
20260505190111 53 253 0.0 3.0 0.00 0.21 0.06 54 1010.9
20260505184558 53 245 1.0 5.0 0.00 0.21 0.06 53 1010.9
20260505183056 52 248 1.0 5.0 0.00 0.21 0.06 52 1010.9
20260505181640 53 337 1.0 5.0 0.00 0.21 0.06 53 1011.0
20260505180105 53 273 1.0 7.0 0.00 0.21 0.06 53 1011.0
20260505174555 53 267 1.0 5.0 0.00 0.21 0.06 53 1011.0
20260505173052 54 257 0.0 6.0 0.00 0.21 0.06 53 1010.8
20260505171559 54 297 0.0 6.0 0.00 0.21 0.06 51 1010.7
20260505170050 54 288 0.0 5.0 0.00 0.21 0.06 57 1010.6
20260505164550 55 314 0.0 3.0 0.00 0.21 0.06 59 1010.3
20260505163048 54 321 1.0 4.0 0.00 0.21 0.06 61 1010.2
20260505161549 52 300 1.0 4.0 0.00 0.21 0.06 68 1010.2
20260505153046 50 310 0.0 4.0 0.00 0.21 0.06 73 1009.6
20260505151546 50 334 0.0 4.0 0.00 0.21 0.06 71 1009.6
20260505124537 45 304 0.0 4.0 0.06 0.21 0.06 81 1009.4
20260505123046 46 290 1.0 6.0 0.04 0.19 0.04 78 1010.2
20260505121528 48 314 0.0 11.0 0.02 0.17 0.02 72 1010.2
20260505120025 49 276 1.0 7.0 0.01 0.16 0.01 69 1010.5
20260505114522 50 245 2.0 9.0 0.00 0.15 0.00 66 1010.5
20260505113016 51 276 2.0 7.0 0.00 0.15 0.00 60 1008.8
20260505111515 51 297 1.0 6.0 0.00 0.15 0.00 60 1008.1
20260505101505 53 309 0.0 3.0 0.00 0.15 0.00 56 1007.9
20260505100004 53 266 2.0 6.0 0.00 0.15 0.00 55 1007.7
20260505094502 54 308 0.0 10.0 0.00 0.15 0.00 54 1007.5
20260505093059 54 259 0.0 3.0 0.00 0.15 0.00 56 1007.1
20260505091559 54 290 0.0 4.0 0.00 0.15 0.00 54 1007.1
20260505090058 55 337 0.0 7.0 0.00 0.15 0.00 54 1006.6
20260505084602 55 302 3.0 10.0 0.00 0.15 0.00 53 1007.1
20260505083104 56 278 1.0 5.0 0.00 0.15 0.00 54 1006.6
20260505081548 56 245 0.0 7.0 0.00 0.15 0.00 53 1006.6
20260505080045 56 360 2.0 7.0 0.00 0.15 0.00 53 1006.5
20260505074542 57 314 1.0 7.0 0.00 0.15 0.00 53 1005.5
20260505073042 57 294 0.0 8.0 0.00 0.15 0.00 54 1005.0
20260505071535 57 263 0.0 3.0 0.00 0.15 0.00 54 1004.7
20260505070034 57 337 1.0 7.0 0.00 0.15 0.00 55 1004.6
20260505064534 58 303 1.0 7.0 0.00 0.15 0.00 56 1004.4
20260505063029 58 348 1.0 4.0 0.00 0.15 0.00 64 1004.4
20260505061527 58 259 0.0 2.0 0.00 0.15 0.00 67 1004.2
20260505060023 59 311 0.0 3.0 0.00 0.15 0.00 68 1003.6
20260505054540 59 294 0.0 2.0 0.00 0.15 0.00 69 1003.5
20260505053018 59 329 0.0 5.0 0.00 0.15 0.00 70 1003.4
20260505051517 59 309 1.0 5.0 0.00 0.15 0.00 74 1002.9
20260505041511 60 255 0.0 0.0 0.01 0.15 0.15 87 1002.1
20260505040013 60 255 0.0 1.0 0.01 0.15 0.15 89 1002.1
20260505034514 60 255 0.0 0.0 0.03 0.15 0.15 89 1001.0
20260505033011 60 255 0.0 1.0 0.04 0.15 0.15 87 1000.6
20260505031509 61 91 0.0 1.0 0.05 0.14 0.14 84 1000.6
20260505030029 62 210 3.0 14.0 0.13 0.14 0.14 77 1001.4
20260505024515 60 290 2.0 9.0 0.12 0.12 0.12 82 1001.4
20260505023008 61 310 1.0 5.0 0.11 0.11 0.11 77 1001.5
20260505021507 63 267 0.0 3.0 0.09 0.09 0.09 75 1001.7
20260505020007 67 263 0.0 10.0 0.01 0.01 0.01 59 1001.1
20260505014511 71 259 5.0 17.0 0.00 0.00 0.00 46 1000.9
20260505013012 73 278 3.0 8.0 0.00 0.00 0.00 61 1000.5